{"data":{"norad_id":69786,"epoch":"2026-09-20T04:00:03.000096Z","epoch_age_seconds":55457,"freshness":"FRESH","line1":"1 69786U 26151Z   26263.16670139 -.00020680  00000+0 -24410-2 0  9993","line2":"2 69786  51.9013 223.2218 0009504  41.5908 129.9984 14.83949961  5654","mean_motion":14.83949961,"eccentricity":0.0009504,"inclination_deg":51.9013,"raan_deg":223.2218,"arg_perigee_deg":41.5908,"mean_anomaly_deg":129.9984,"bstar":-0.002441,"rev_number":565,"period_min":97.038312466386,"perigee_km":610.23562420535,"apogee_km":623.53175953646,"semimajor_km":6995.0206918709,"source":"CELESTRAK","updated_at":"2026-09-20T09:00:25.095002Z"}}